Location: Fort Frances
(48.6170°N, 93.4170°W)
Time: 03:23:59
(UTC-05:00)

Daily predictions for brighter satellites

Satellite Brightness Start Highest point End
(mag) Time Altitude Azimuth Time Altitude Azimuth Time Altitude Azimuth
Cosmos 1805 3.5 00:01:20 10° NNW 00:05:13 62° W 00:06:19 42° SSW
Cosmos 2058 Rocket 3.3 00:02:42 10° NNW 00:07:11 63° W 00:08:50 37° SSW
Cosmos 1842 3.2 00:06:40 46° SSW 00:07:46 84° W 00:11:43 10° N
Cosmos 1470 3.2 00:06:15 10° N 00:10:04 50° ENE 00:10:54 41° ESE
Cosmos 1818 4.3 00:13:58 32° SE 00:14:55 34° ESE 00:19:50 10° NE
Terra 3.6 00:12:52 15° SW 00:15:27 22° W 00:19:11 10° NW
Iridium 4 Rocket 3.8 00:12:59 34° S 00:15:37 79° E 00:21:34 10° N
Cosmos 2333 Rocket 3.2 00:14:08 10° NW 00:19:18 36° WSW 00:21:38 26° SSW
CZ-4C R/B 3.9 00:20:13 38° SE 00:21:41 59° ENE 00:26:03 10° N
COSMOS 2428 4.4 00:17:46 10° NW 00:22:02 22° WSW 00:24:36 16° SW
SL-16 R/B 2.4 00:18:13 10° NNW 00:23:54 68° ENE 00:26:44 30° SE
USA 234 4.2 00:17:44 10° ENE 00:24:00 50° NNW 00:30:16 10° W
Abrixas rocket 2.3 00:20:49 10° W 00:23:34 61° W 00:23:34 61° W
ALOS 2 2.7 00:23:42 43° SE 00:25:02 69° ENE 00:29:25 10° N
DELTA 2 DEB (DPAF) 4.1 00:23:52 43° SSE 00:25:16 75° ENE 00:29:45 10° N
ISS -3.2 00:22:54 10° WNW 00:26:07 56° N 00:27:41 27° E
Cosmos 1953 2.2 00:22:58 10° N 00:27:00 89° E 00:27:47 56° S
SL-19 R/B 4.4 00:25:27 10° NNE 00:31:42 83° ESE 00:34:35 33° SSW
Cosmos 1980 4.3 00:27:57 10° NW 00:33:19 45° WSW 00:35:20 32° SSW
Cosmos 1655 Rocket 4.5 00:28:35 10° NNW 00:34:47 53° W 00:38:00 28° SSW
Cosmos 1812 Rocket 3.4 00:33:15 10° N 00:37:38 84° E 00:38:43 51° SSE
Cosmos 1707 3.0 00:37:14 49° SE 00:37:43 53° E 00:41:33 10° NNE
Cosmos 2279 Rocket 4.4 00:34:45 24° SSW 00:38:32 57° WNW 00:44:39 10° N
Cosmos 1626 Rocket 3.5 00:38:06 47° SSW 00:39:21 86° W 00:43:51 10° N
Cosmos 2056 Rocket 4.5 00:36:42 10° N 00:41:32 40° ENE 00:44:26 21° ESE
Cosmos 1602 Rocket 3.5 00:40:48 50° S 00:41:57 89° E 00:46:24 10° N
Cosmos 1538 Rocket 4.3 00:40:21 27° SW 00:43:08 65° WNW 00:48:24 10° NNE
CZ-4 R/B 4.1 00:38:25 10° N 00:43:26 71° WNW 00:45:35 34° SSW
Cosmos 2297 Rocket 2.1 00:41:29 33° SSW 00:44:08 87° ESE 00:49:51 10° NNE
ADEOS Rocket 2.9 00:39:19 10° NNE 00:44:49 57° E 00:46:45 37° SSE
Cosmos-2242 4.5 00:43:30 10° N 00:47:16 29° ENE 00:48:51 23° ESE
Cosmos 2227 Rocket 2.2 00:44:40 30° SSW 00:47:38 81° WNW 00:53:20 10° NNE
Cosmos 923 Rocket 4.0 00:48:09 42° S 00:49:56 71° ESE 00:55:10 10° NNE
Cosmos 1680 Rocket 3.7 00:49:28 41° SSE 00:50:56 56° ESE 00:56:03 10° NNE
Cosmos 2237 Rocket 3.1 00:45:53 10° NW 00:51:02 36° WSW 00:52:51 29° SW
Cosmos 2112 Rocket 4.3 00:52:41 40° SSE 00:54:05 52° ESE 00:59:07 10° NNE
Cosmos 1758 Rocket 4.4 00:53:12 34° ESE 00:54:11 39° E 00:58:23 10° NNE
Cosmos 1378 3.4 00:57:27 52° WSW 00:58:03 61° WNW 01:01:48 10° N
CZ-4B R/B 3.4 00:53:36 10° NNE 00:58:42 81° ESE 01:00:30 42° S
ERBS 3.4 00:57:58 10° WNW 01:00:13 33° W 01:00:13 33° W
Cosmos 2082 3.7 00:58:38 32° SSW 01:01:25 83° WNW 01:07:12 10° NNE
Mayak -1.1 00:58:52 10° N 01:03:07 69° WNW 01:04:15 46° SW
H-2A R/B 2.2 01:04:03 49° SSW 01:04:56 62° WSW 01:09:11 10° NNW
Cosmos 2266 Rocket 4.5 01:08:40 10° NNW 01:14:46 51° W 01:17:36 30° SSW
USA 229 DEB 4.0 01:13:41 34° S 01:16:08 48° ESE 01:22:44 10° NE
USA 229 4.0 01:13:49 34° SSE 01:16:15 48° ESE 01:22:50 10° NE
In-Cosmos 22 4.4 01:15:45 36° SSE 01:17:33 53° E 01:22:47 10° NNE
CZ-4B R/B 4.2 01:16:08 10° E 01:17:53 13° ENE 01:19:37 10° NNE
Cosmos 1553 Rocket 4.4 01:21:26 30° SSE 01:24:14 52° E 01:30:11 10° NNE
Cosmos 2292 Rocket 4.0 01:22:34 10° N 01:26:25 55° E 01:28:08 35° SE
Cosmos 1674 3.9 01:26:46 27° ESE 01:27:19 29° E 01:30:35 10° NNE
IKONOS-2 4.5 01:27:03 53° S 01:27:56 73° WSW 01:32:12 10° NNW
Cosmos 1400 Rocket 2.8 01:29:35 55° SSW 01:30:26 78° WNW 01:34:37 10° N
Cosmos 1825 Rocket 3.6 01:31:56 49° SSW 01:33:04 74° W 01:37:32 10° N
COSMOS 2455 3.6 01:33:57 16° WSW 01:38:39 50° NW 01:44:31 10° NNE
MOS 1 Rocket 4.2 01:33:53 10° NNE 01:39:11 49° E 01:41:21 32° SSE
Cosmos 1238 Rocket 3.2 01:44:18 44° SW 01:45:30 62° W 01:49:24 10° N
Cosmos 1818 4.3 01:54:34 19° WSW 01:58:22 50° NW 02:03:42 10° NNE
Meteor 1-24 Rocket 3.8 01:57:40 35° SSW 02:00:12 80° WNW 02:06:10 10° N
ISS -1.6 01:59:27 10° WNW 02:00:17 16° W 02:00:17 16° W
Cosmos 1315 Rocket 2.8 02:04:05 50° SW 02:04:56 67° WNW 02:08:53 10° N
Meteor 2-10 4.1 02:00:11 10° N 02:05:14 71° ENE 02:07:48 29° SSE
Cosmos 1908 3.1 02:02:26 10° NNW 02:06:17 71° W 02:06:56 56° SSW
USA 234 4.5 02:00:13 10° ENE 02:06:20 44° N 02:12:27 10° WNW
Cosmos 1943 3.2 02:00:46 10° NNW 02:06:32 84° ENE 02:10:17 22° SSE
Cosmos 1842 Rocket 3.7 02:02:21 10° N 02:06:45 70° E 02:08:26 36° SSE
SL-16 R/B 3.6 02:03:13 10° NW 02:07:29 22° W 02:08:36 21° WSW
Meteor 2-5 Rocket 4.3 02:04:41 28° SW 02:07:32 50° WNW 02:13:19 10° N
KORONAS-FOTON 3.9 02:06:56 48° SSE 02:07:45 64° E 02:11:34 10° NNE
SL-16 R/B 3.8 02:02:13 10° SE 02:07:51 38° ENE 02:13:29 10° N
Cosmos 2263 Rocket 2.9 02:06:21 28° SSE 02:08:45 42° ESE 02:14:06 10° NE
Cosmos 1745 Rocket 4.0 02:02:26 10° NNW 02:08:49 78° W 02:12:06 31° S
GEOS 3 Rocket 4.5 02:06:55 10° NE 02:11:49 36° ESE 02:13:41 28° SSE
Cosmos 1726 2.0 02:10:25 10° N 02:14:06 84° W 02:14:50 55° S
Cosmos 1300 3.5 02:10:35 10° N 02:14:17 45° ENE 02:15:58 27° SE
TELKOM 3 4.5 02:15:57 35° ESE 02:15:57 35° ESE 02:17:39 10° E
Cosmos 1437 2.9 02:12:16 10° NNW 02:15:16 55° W 02:15:16 55° W
Cosmos 1346 Rocket 3.0 02:16:20 10° NNW 02:20:05 50° W 02:20:44 44° SW
Cosmos 1452 Rocket 3.4 02:16:16 10° NNW 02:21:34 80° WSW 02:24:23 29° SSE
CZ-4C R/B 3.0 02:22:57 53° WSW 02:23:09 55° W 02:26:28 10° NNW
Cosmos 2056 Rocket 4.3 02:19:04 10° NW 02:23:34 32° WSW 02:24:45 29° SW
Cosmos-2242 4.1 02:21:04 10° NNW 02:24:49 30° W 02:25:42 27° WSW
Cosmos 158 Rocket 4.2 02:22:59 32° S 02:25:27 64° ESE 02:30:47 10° NNE
Cosmos 2297 Rocket 4.2 02:24:36 10° W 02:28:57 22° NW 02:33:19 10° N
S3M 4.1 02:25:53 29° SSW 02:29:05 64° WNW 02:35:21 10° N
ADEOS Rocket 4.4 02:25:35 10° N 02:30:00 25° WNW 02:33:42 13° WSW
Cosmos 2227 Rocket 4.3 02:28:32 10° W 02:32:37 20° NW 02:36:42 10° N
Landsat 5 3.4 02:35:46 39° S 02:37:10 66° WSW 02:41:09 10° NNW
Cosmos 1603 4.4 02:34:16 10° NW 02:39:22 35° WSW 02:41:15 28° SW
Cosmos 1709 Rocket 4.0 02:39:18 10° N 02:45:43 81° W 02:50:00 22° S
Cosmos 1607 4.1 02:40:32 10° NW 02:47:02 79° NE 02:53:22 10° SE
NOSS 3-1 (C) 3.4 02:43:36 26° SW 02:47:06 85° NW 02:53:47 10° NE
Okean 3 Rocket 4.5 02:44:47 20° SSE 02:47:27 44° E 02:51:41 10° NNE
Cosmos 1420 Rocket 4.2 02:44:54 10° NNW 02:50:00 54° WSW 02:52:36 27° S
CZ-4B R/B 1.7 02:49:22 42° SW 02:50:04 50° W 02:53:24 10° NNW
SL-14 R/B 3.1 02:50:47 36° S 02:52:16 89° W 02:56:09 10° N
SeaSat 1 2.9 02:53:52 10° SE 02:58:45 64° NE 03:03:39 10° NNW
Cosmos 1626 2.6 02:57:05 26° SSE 02:58:55 54° E 03:02:35 10° NNE
Cosmos 2285 Rocket 4.1 02:56:20 24° SSW 03:00:25 80° ESE 03:06:48 10° NNE
Cosmos 1076 Rocket 3.7 02:59:25 25° S 03:01:53 68° E 03:06:12 10° NNE
Cosmos 1674 4.3 03:01:38 19° W 03:02:55 23° WNW 03:05:57 10° NNW
CBERS-1 4.3 02:57:56 10° NNE 03:03:02 62° ESE 03:06:30 20° S
UNK 3.8 02:59:24 16° SSE 03:03:09 79° ENE 03:07:51 10° NNW
Cosmos 1328 4.0 03:03:38 25° S 03:05:50 65° E 03:09:49 10° NNE
Cosmos 1689 Rocket 3.0 03:06:41 33° WSW 03:07:04 34° W 03:09:59 10° NNW
USA 229 DEB 4.4 03:01:06 13° WSW 03:07:08 51° NW 03:13:57 10° NE
CZ-2D R/B 2.6 03:02:05 10° NNE 03:07:12 53° E 03:11:07 17° S
USA 229 4.4 03:01:14 13° WSW 03:07:13 51° NW 03:14:03 10° NE
NOSS 3-1 (A) 3.4 03:04:05 23° SW 03:07:54 87° NW 03:14:38 10° NE
Cosmos 2221 2.9 03:08:12 10° NNW 03:12:26 47° W 03:14:34 26° SSW
USA 267 4.2 03:06:52 10° ENE 03:12:46 35° SE 03:17:05 17° S
Cosmos 1340 3.6 03:09:27 10° NNW 03:12:52 32° W 03:13:56 27° SW
IRS-1D 4.3 03:07:53 10° NNE 03:13:07 50° E 03:17:28 14° S
Cosmos 1110 Rocket 4.1 03:09:11 10° NNW 03:14:26 79° ENE 03:19:37 10° SSE
SL-08 R/B 3.3 03:10:45 16° SSE 03:14:46 82° WSW 03:19:42 10° NNW
Genesis I 3.3 03:13:50 29° SSW 03:15:48 74° SE 03:19:51 10° NE
ARIANE 5 R/B 3.5 03:12:22 10° NNE 03:17:11 40° E 03:21:43 11° SSE
ATLAS 3B R/B 4.3 03:11:09 10° NW 03:17:21 37° NNE 03:23:23 10° E
Resurs 1-4 Rocket 2.2 03:20:13 10° NNE 03:25:33 77° ESE 03:29:45 17° S
IRS-P3 4.1 03:28:10 10° NNE 03:33:32 76° WNW 03:37:34 18° SSW
Cosmos 1844 Rocket 3.5 03:29:01 13° S 03:33:47 45° ESE 03:39:10 10° NE
Aureole 1 Rocket 3.4 03:33:17 20° WSW 03:34:44 29° WNW 03:37:25 10° N
NPP 3.8 03:31:06 10° N 03:36:27 67° WNW 03:40:33 17° SSW
PSLV R/B 3.9 03:33:26 11° SSE 03:37:24 80° WSW 03:41:39 10° NNW
Cosmos 1328 Rocket 3.8 03:34:27 10° N 03:38:46 70° E 03:43:04 10° SSE
MOZ.5/SAFIR/RUBIN 5/SL-8 3.8 03:37:41 10° S 03:42:26 71° WSW 03:47:13 10° NNW
Cosmos 2278 Rocket 4.3 03:40:41 10° SE 03:44:36 20° E 03:48:33 10° NE
ADEOS II 3.8 03:40:32 10° NNE 03:45:07 29° E 03:49:40 10° SSE
Cosmos 1703 3.2 03:42:47 17° S 03:45:48 85° W 03:49:47 10° N
Cosmos 921 Rocket 3.5 03:42:26 10° NNW 03:46:29 41° WSW 03:49:53 14° S
Cosmos 1766 Rocket 3.5 03:45:12 16° SSW 03:48:37 77° W 03:53:01 10° N
USA 234 3.7 03:42:21 10° ESE 03:48:50 67° NNE 03:55:20 10° NW
GEOS 3 Rocket 4.1 03:44:47 10° NE 03:50:01 55° NW 03:54:47 12° WSW
Cosmos 2228 Rocket 3.6 03:45:59 10° N 03:50:34 64° ENE 03:55:06 10° SSE
SL-16 R/B 2.9 03:45:56 12° S 03:51:23 45° W 03:57:20 10° NNW
Cosmos 2263 Rocket 3.1 03:48:02 13° WSW 03:52:45 39° NW 03:58:05 10° NNE
UNKNOWN OBJECT B 3.7 03:50:51 10° NNE 03:54:25 42° E 03:58:00 10° S
Cosmos 1331 Rocket 4.1 03:50:26 10° NNW 03:55:28 55° WSW 04:00:29 10° S
USA 238 DEB 4.3 03:51:13 10° NW 03:58:17 65° NE 04:05:27 10° SE
USA 238 4.3 03:51:20 10° NW 03:58:23 65° NE 04:05:34 10° SE
H-2A R/B 3.1 03:55:33 10° N 03:59:52 47° WNW 04:03:22 14° SW
Cosmos 1455 2.5 03:56:23 10° NNW 04:00:03 48° W 04:03:22 12° SSW
Cosmos 1302 Rocket 4.0 03:55:09 10° NNW 04:00:29 85° WSW 04:05:47 10° SSE
Cosmos 1269 Rocket 4.4 03:56:30 15° SW 04:00:49 53° WNW 04:06:03 10° NNE
Meteor 1-11 4.3 03:56:32 13° SSW 04:01:33 68° WNW 04:07:13 10° N
Cosmos 1515 Rocket 3.6 03:57:33 10° N 04:01:55 84° E 04:06:16 10° S
NOSS 2-3 (D) 3.9 03:58:00 15° SW 04:01:55 87° SE 04:07:34 10° NE
Cosmos 1809 Rocket 4.5 03:58:24 10° NNW 04:04:27 67° W 04:10:27 10° S
TELKOM 3 3.4 04:03:55 10° W 04:06:38 61° N 04:08:48 10° E
GP-B 4.2 04:03:13 10° NNE 04:07:30 45° E 04:11:45 10° SSE
Helios 1A Rocket 3.2 04:04:41 10° NNE 04:08:46 65° ESE 04:12:48 10° S
Cosmos 1869 3.6 04:06:43 10° N 04:10:40 71° E 04:14:35 10° SSE
Cosmos 2341 Rocket 4.2 04:05:13 10° N 04:11:29 76° E 04:17:46 10° SSE
COSMOS 2406 3.2 04:06:59 10° NNW 04:12:46 74° WSW 04:18:31 10° SSE
Cosmos 1151 Rocket 3.0 04:09:32 10° NNW 04:13:55 75° W 04:18:15 10° S
Cosmos 2251 Rocket 3.8 04:08:45 10° S 04:14:05 69° ESE 04:19:27 10° NNE
Cosmos 2058 3.0 04:10:58 10° SSW 04:15:08 69° W 04:19:22 10° N
Cosmos 1408 Rocket 3.9 04:11:30 12° SSW 04:15:22 49° WNW 04:19:39 10° N
Geosat 4.0 04:10:40 10° NNE 04:15:44 89° WNW 04:20:47 10° SSW
ADEOS 3.8 04:11:47 10° NNE 04:17:02 74° ESE 04:22:15 10° S
APEX 4.2 04:15:14 10° NNW 04:17:51 35° NE 04:20:25 10° SE
CZ-2D R/B 3.7 04:18:04 10° NNE 04:22:32 90° N 04:26:59 10° SSW
NOSS 2-3 (E) 4.2 04:18:05 11° SW 04:22:40 67° NW 04:28:23 10° NE
Timation 1 Rocket 4.4 04:20:09 10° SSW 04:26:06 84° ESE 04:32:07 10° NNE
SAR-Lupe-2 4.3 04:23:39 10° SSW 04:26:57 35° W 04:30:17 10° NNW
Cosmos 2082 Rocket 3.8 04:21:44 10° NNW 04:27:09 41° NE 04:32:32 10° ESE
Cosmos 2181 Rocket 4.4 04:24:26 10° S 04:30:49 70° E 04:37:14 10° NNE
ATLAS 2AS CENTAUR R/B 3.6 04:23:36 10° SSW 04:31:16 59° ESE 04:39:13 10° NE
Cosmos 1626 4.3 04:32:40 10° W 04:34:37 14° WNW 04:36:33 10° NW
SeaSat 1 3.7 04:32:51 10° SSW 04:36:38 22° WSW 04:40:26 10° NW
Nadezhda 1 Rocket 4.4 04:30:38 10° SSW 04:36:39 50° WNW 04:42:50 10° N
Cosmos 2154 Rocket 4.4 04:33:43 10° NNW 04:39:43 48° W 04:45:44 10° SSW
